Lapse_Rate
7.3 6.5 6.5 6.5 6.5 6.5 6.5 6.5 6.5 6.5 6.5 6.5 6.5 6.5 6.5 6.8 7.2 7.1 7.4 7.7 7.9 8.1 8.7 9.0 9.0 7.7 8.0 7.4 6.0 5.1 5.0 5.2 5.2 5.0 6.0 5.9 5.6 5.6 5.4 6.2 6.9 8.3 8.1 7.4
6.5 6.5 6.5 6.5 6.5 6.5 6.5 6.5 6.5 6.5 6.5 6.5 6.5 6.5 6.5 6.5 6.7 7.2 7.3 7.6 7.8 8.2 8.5 8.7 8.9 8.9 6.6 8.5 6.8 5.8 5.4 5.5 5.4 5.1 5.8 6.2 5.7 6.1 6.1 6.6 6.8 7.6 7.7 7.9
6.5 6.5 6.5 6.5 6.5 6.5 6.5 6.5 6.5 6.5 6.5 6.5 6.5 6.5 6.5 6.5 6.9 7.3 7.6 7.9 8.0 8.1 8.2 8.4 8.6 8.8 8.9 8.8 7.6 6.0 5.7 5.3 5.6 5.3 5.7 5.4 5.2 5.6 6.7 6.7 9.0 8.5 8.2 8.8
6.5 6.5 6.5 6.5 6.5 6.5 6.5 6.5 6.5 6.5 6.5 6.5 6.5 6.5 6.5 6.5 6.5 6.5 7.1 7.6 7.8 8.2 8.5 8.6 8.5 8.7 8.9 9.0 8.8 7.3 6.0 5.7 5.3 5.1 5.7 5.4 5.4 6.1 6.4 6.1 7.8 9.6 9.2 8.3
6.5 6.5 6.5 6.5 6.5 6.5 6.5 6.5 6.5 6.5 6.5 6.5 6.5 6.5 6.5 6.5 6.5 6.5 6.5 7.3 7.8 8.1 8.4 8.4 8.5 8.7 8.9 9.2 9.2 8.5 7.0 6.4 5.7 5.8 5.8 5.4 6.2 6.6 6.3 6.9 7.5 8.6 8.1 8.0
6.5 6.9 6.5 6.5 6.5 6.5 6.5 6.5 6.5 6.5 6.5 6.5 6.5 6.5 6.5 6.5 6.5 6.5 6.5 7.2 7.6 8.0 8.3 8.6 8.8 8.9 9.0 9.3 9.3 8.7 8.1 7.2 6.2 5.8 6.1 5.9 6.3 7.6 7.7 6.1 6.1 5.4 5.7 6.9
6.5 6.5 6.5 6.6 6.5 6.5 6.5 6.5 6.5 6.5 6.5 6.5 6.5 6.5 6.5 6.5 6.5 6.5 6.5 7.1 7.6 8.0 8.2 8.4 8.6 8.7 8.8 8.8 9.0 9.1 8.4 7.7 7.1 6.4 6.6 7.2 7.1 7.6 8.8 7.5 7.3 6.9 5.8 5.4
6.5 6.5 6.5 6.5 6.5 6.5 6.5 6.5 6.5 6.5 6.5 6.5 6.5 6.5 6.5 6.5 6.7 7.1 7.3 7.5 7.6 7.9 8.2 8.3 8.5 8.7 8.7 8.5 8.1 6.5 8.9 9.1 8.7 7.2 7.1 8.8 9.0 9.6 9.3 9.3 8.8 8.5 8.1 7.8
6.5 6.5 6.5 6.5 6.5 6.5 6.5 6.5 6.5 6.5 6.5 6.5 6.5 6.5 6.5 6.5 6.5 6.5 6.9 7.2 7.4 7.8 8.1 8.3 8.6 8.7 8.7 8.7 6.0 3.5 6.0 8.8 9.3 9.0 8.5 8.2 9.1 9.4 9.6 9.5 9.4 9.2 9.2 9.7
6.5 6.5 6.5 6.5 6.6 6.5 6.5 6.5 6.5 6.5 6.5 6.5 6.5 6.5 6.5 6.5 6.5 6.5 6.5 6.8 7.3 7.7 8.0 8.2 8.5 8.6 8.7 8.8 8.3 3.6 5.5 8.7 9.2 9.4 9.3 9.3 9.1 9.3 9.5 9.8 9.4 8.9 9.0 8.6
6.5 6.5 6.5 6.5 6.5 6.5 6.5 6.5 6.5 6.5 6.5 6.5 6.5 6.5 6.5 6.5 6.5 6.5 6.5 7.0 7.3 7.6 7.9 8.2 8.5 8.7 8.8 8.9 8.9 5.3 5.2 8.9 9.1 9.2 9.2 9.2 9.4 9.3 9.3 9.5 9.3 9.2 9.1 8.7
6.5 6.5 6.5 6.5 6.5 6.5 6.5 6.5 6.5 6.5 6.5 6.5 6.5 6.5 6.5 6.5 6.5 6.6 6.8 7.3 7.7 8.0 8.1 8.3 8.5 8.6 8.7 8.7 8.8 8.7 6.9 8.0 8.1 9.0 9.0 8.7 9.1 9.2 9.2 8.0 7.3 7.4 7.9 8.8
6.5 6.5 6.5 6.5 6.5 6.5 6.5 6.5 6.5 6.5 6.5 6.5 6.5 6.5 6.5 6.5 6.5 6.9 7.0 7.4 7.7 7.9 8.0 8.2 8.4 8.5 8.5 8.6 8.5 8.7 7.9 5.4 8.0 8.9 8.1 7.4 7.3 7.9 7.0 5.7 5.9 7.0 7.6 8.9
6.5 6.5 6.5 6.5 6.5 6.5 6.5 6.5 6.5 6.5 6.5 6.5 6.5 6.5 6.5 6.5 6.5 6.6 7.1 7.5 7.7 7.9 7.9 8.2 8.2 8.4 8.6 8.5 8.4 8.5 8.3 6.6 7.4 9.0 8.6 7.5 5.8 4.4 4.0 4.7 5.8 6.0 5.8 6.4
6.5 6.5 6.5 6.5 6.5 6.5 6.5 6.5 6.5 6.5 6.5 6.5 6.5 6.5 6.5 6.5 6.5 6.7 7.3 7.5 7.7 7.7 7.8 7.9 8.0 8.3 8.5 8.6 8.7 8.7 8.8 8.5 6.8 8.4 8.8 6.2 4.3 4.9 6.0 5.6 5.4 5.5 5.7 5.8
6.5 6.5 6.5 6.5 6.5 6.5 6.5 6.5 6.5 6.5 6.5 6.5 6.5 6.5 6.5 6.8 7.2 7.0 7.2 7.4 7.4 7.7 7.9 8.1 8.2 8.2 7.9 7.2 8.3 8.6 8.4 7.5 7.2 6.4 5.5 7.5 7.6 5.8 5.3 5.8 7.0 7.4 6.0 6.1
6.5 6.5 6.5 6.5 6.5 6.5 6.5 6.5 6.5 6.5 6.5 6.5 6.5 6.5 6.5 6.5 6.5 6.9 7.3 7.5 7.5 7.7 8.0 8.1 8.2 8.2 8.3 6.5 4.7 5.6 6.2 8.8 7.1 5.1 6.2 7.4 7.0 6.3 6.3 6.4 6.7 7.2 8.6 9.1
6.5 6.5 6.5 6.5 6.5 6.5 6.5 6.5 6.5 6.5 6.5 6.5 6.5 6.5 6.5 6.7 7.3 7.7 8.0 7.7 7.6 8.0 8.1 8.3 8.4 8.4 8.6 8.8 8.0 7.1 8.7 8.7 8.0 5.8 7.0 7.7 6.5 6.2 8.0 7.7 7.6 9.0 9.2 9.0
6.5 6.5 6.5 6.5 6.5 6.5 6.5 6.5 6.5 6.5 6.5 6.5 6.5 6.5 6.7 7.2 7.4 7.1 8.0 8.1 8.2 8.2 8.4 8.6 8.8 8.7 8.7 8.7 8.8 5.7 8.2 8.7 8.7 7.1 5.1 5.8 7.2 8.0 8.6 7.9 7.9 9.0 8.5 7.4
6.5 6.5 6.5 6.5 6.5 6.5 6.5 6.5 6.9 6.5 6.5 6.5 6.6 6.5 6.5 7.1 6.5 6.5 8.0 8.3 8.4 8.6 8.7 8.7 8.7 8.7 8.6 8.4 8.8 7.7 5.4 7.4 8.3 6.7 8.2 8.1 7.5 8.4 8.7 8.4 6.8 1.1 0.8 -1.0
6.5 6.5 6.5 6.5 6.5 6.5 6.5 6.6 7.0 6.5 6.5 6.9 7.1 7.1 7.0 6.5 6.9 7.9 8.3 8.3 8.6 8.7 8.7 8.8 8.8 8.6 8.7 8.8 8.5 6.6 6.0 6.3 8.2 8.3 6.6 7.7 8.5 7.9 4.4 1.2 -0.5 -2.5 -2.8 -3.6
6.5 6.5 6.5 6.5 6.5 6.5 6.8 6.7 6.5 6.6 7.2 7.4 7.4 7.5 7.3 7.7 7.8 8.0 8.2 8.3 8.5 8.6 8.6 8.9 8.7 8.6 8.8 8.6 8.3 7.9 7.5 4.2 3.5 2.3 1.0 0.2 -0.4 -0.6 -0.7 -1.8 -2.3 -2.2 -3.1 -3.7
6.5 6.5 6.5 6.5 6.5 6.6 7.2 6.9 7.6 7.8 7.4 7.6 7.7 8.0 8.0 7.8 7.7 8.0 8.1 8.3 8.3 8.6 8.6 8.8 8.3 7.7 5.6 5.6 8.4 7.7 1.9 1.4 1.2 -0.1 -0.6 -0.9 -0.7 -1.0 -1.4 -1.3 -1.8 -2.8 -3.1 -3.0
6.5 6.7 6.5 6.5 6.5 6.5 7.1 7.6 7.9 8.1 7.9 8.1 8.3 8.2 8.2 7.9 8.0 8.0 8.1 6.8 5.9 4.7 6.3 6.9 5.4 5.0 3.4 2.5 2.3 3.7 2.9 2.1 0.4 -0.8 -1.6 -2.2 -2.5 -2.2 -2.0 -2.1 -2.1 -1.9 -2.1 -1.6
6.5 6.5 6.5 6.5 6.5 6.9 7.3 7.6 7.9 8.0 8.2 8.2 8.4 8.3 8.1 8.1 8.1 8.0 8.1 6.9 3.1 1.4 1.6 3.9 4.7 3.3 3.6 3.6 1.8 1.3 1.1 0.5 -1.3 -1.9 -2.0 -2.2 -3.0 -3.5 -2.8 -2.5 -1.2 -0.9 -0.0 0.5
6.8 6.5 6.5 6.5 6.9 6.8 7.0 7.9 8.1 7.9 7.9 8.2 8.1 8.1 8.2 8.0 8.1 8.2 8.1 7.2 2.5 1.0 0.8 2.1 4.3 1.9 1.8 2.3 1.7 1.0 1.4 1.4 -0.1 -0.8 0.2 -0.2 -0.8 -1.1 -0.7 -1.0 -0.6 0.0 -0.0 0.1
Wind_Speed
19 14 20 25 22 20 11 12 14 7 4 7 13 15 12 6 11 13 12 13 14 13 11 11 11 10 10 10 9 10 13 12 9 9 9 9 10 9 7 12 14 15 18 19
10 20 21 17 18 20 18 15 13 6 6 10 14 14 14 4 9 11 13 14 15 14 13 13 13 13 13 12 12 13 11 16 11 9 8 6 9 11 11 17 17 17 18 20
21 9 18 14 16 19 21 19 14 12 3 11 10 15 17 12 8 8 12 13 15 17 17 16 15 14 15 15 15 13 14 14 14 12 8 6 6 5 9 10 12 14 20 21
16 23 5 19 22 19 19 17 16 12 9 11 7 14 15 11 15 12 12 13 14 17 17 17 17 16 16 15 15 16 14 15 13 14 12 15 12 11 10 12 12 13 21 20
12 12 20 17 18 18 16 7 13 14 13 13 14 9 13 9 14 15 14 13 15 16 19 19 19 18 16 16 16 16 16 17 15 15 15 12 13 9 9 9 12 13 15 21
15 4 13 19 13 12 4 8 7 6 7 12 15 11 11 12 13 10 9 9 10 13 17 18 17 16 16 15 16 16 17 17 17 17 17 17 17 14 12 12 10 9 8 10
13 14 5 9 16 13 15 12 7 9 9 10 5 10 16 6 10 11 9 8 7 10 14 18 20 19 18 19 19 17 19 19 18 18 20 21 20 19 19 18 14 15 9 7
14 9 15 13 14 9 21 17 6 6 9 9 8 8 11 7 7 11 9 9 4 10 13 17 21 20 20 21 21 20 21 21 22 20 21 22 25 16 14 18 16 13 14 13
12 13 10 14 9 13 13 19 16 10 2 4 7 5 10 9 8 6 9 7 8 10 12 15 19 21 21 21 22 22 21 21 22 23 19 20 20 22 20 20 17 14 16 14
6 6 9 16 17 17 11 11 8 10 10 13 10 9 6 3 7 8 7 7 5 6 9 12 16 20 20 20 19 20 21 22 22 22 21 20 23 23 21 18 20 20 18 19
8 5 6 10 14 17 14 12 8 6 10 8 8 5 4 6 11 12 11 3 6 9 7 8 14 17 19 18 19 21 21 22 22 22 22 21 21 22 22 19 20 21 20 19
6 3 7 10 4 5 12 17 18 10 11 6 5 6 5 6 8 11 9 11 13 12 10 6 11 14 18 20 20 21 21 22 22 21 21 21 20 21 21 20 21 20 21 20
5 7 9 10 6 5 4 3 4 3 2 10 8 3 2 12 12 12 14 13 13 13 10 5 6 12 15 18 19 21 21 23 21 21 22 22 22 21 22 23 23 22 21 21
8 3 6 10 3 2 7 5 3 5 6 8 10 9 7 12 15 15 15 16 16 15 15 10 7 10 13 16 18 19 20 20 21 21 22 22 23 24 23 21 22 20 21 21
2 3 2 1 1 1 4 7 7 6 6 6 8 9 8 9 12 15 14 17 19 19 17 14 11 10 12 15 17 18 18 19 20 21 22 23 22 21 21 21 21 20 20 19
6 4 4 5 5 6 8 9 9 10 11 11 15 17 12 11 11 13 16 16 17 19 20 18 15 12 12 14 16 16 18 20 20 21 23 21 21 21 21 21 20 19 20 20
4 3 5 9 3 5 8 15 16 13 11 9 11 8 11 12 13 16 19 18 19 21 21 21 20 16 11 12 14 16 18 17 20 21 20 20 20 20 20 19 20 21 20 19
5 5 3 3 3 7 1 3 0 6 9 8 8 8 7 9 10 13 17 15 16 19 22 21 19 19 15 11 12 14 15 17 19 19 19 19 19 19 18 18 18 18 16 17
12 6 3 4 11 9 12 6 8 7 4 0 3 6 9 9 11 9 11 14 18 19 20 21 20 20 20 16 11 10 13 16 18 19 20 19 18 17 17 18 16 14 13 9
13 12 7 5 7 6 4 5 1 1 3 7 7 8 11 12 8 8 15 16 17 19 19 21 23 21 19 18 14 11 13 15 18 18 17 16 16 17 16 16 11 7 7 7
10 11 14 11 7 3 9 5 2 5 4 9 12 13 13 9 10 12 14 18 16 18 22 23 21 19 18 15 13 13 11 14 14 12 12 12 13 10 10 9 8 10 10 10
10 9 8 11 6 6 5 3 4 7 8 13 15 15 15 14 11 11 13 17 19 22 23 22 20 18 14 13 11 11 8 3 7 10 10 10 10 8 9 13 11 11 11 10
7 7 6 7 7 3 2 3 9 9 9 12 13 16 16 13 8 9 12 14 17 21 19 19 18 16 13 14 10 3 3 6 9 12 12 12 12 11 9 10 9 8 12 8
8 8 7 5 8 10 6 4 6 8 8 10 11 13 14 11 10 10 8 8 11 14 16 16 16 14 13 13 14 10 8 7 10 13 12 11 13 12 10 8 8 7 8 8
9 7 10 12 13 11 10 3 8 9 9 10 11 10 10 13 13 12 10 10 12 11 14 14 13 11 14 13 11 12 11 9 12 12 11 11 11 14 13 13 9 8 8 7
10 11 8 8 5 0 5 7 7 9 9 10 11 12 10 10 12 12 8 9 10 10 10 11 12 11 13 13 12 12 11 10 10 12 9 9 10 11 10 12 14 27 25 27
Wind_Direction
199 206 213 216 220 237 271 258 254 234 170 238 239 253 259 238 229 223 220 215 216 214 196 185 178 189 184 179 173 160 162 167 149 159 158 157 168 176 180 181 191 193 192 199
184 224 222 227 223 233 236 245 246 249 258 241 250 250 263 229 229 230 221 217 218 210 195 191 182 178 192 188 181 176 163 172 171 171 170 164 165 182 187 192 209 212 199 199
219 222 229 215 217 223 229 235 245 255 191 244 270 255 249 225 219 228 229 234 215 210 202 193 190 190 189 191 175 181 168 165 169 168 168 155 130 143 198 206 213 207 207 203
232 236 207 210 223 217 230 224 246 248 257 259 205 259 250 240 248 208 230 218 219 208 206 198 192 191 192 191 182 178 175 173 169 162 167 171 171 174 195 210 213 211 212 207
220 227 214 219 224 217 243 218 232 240 245 267 239 257 261 254 253 247 234 211 213 209 204 199 199 193 191 186 185 183 179 182 176 176 176 173 184 193 188 201 209 214 205 205
255 214 228 225 216 217 225 186 195 214 233 243 244 237 263 245 240 256 235 202 204 204 204 201 198 194 189 184 187 185 184 186 182 182 182 186 186 189 189 193 197 201 194 195
224 221 197 232 216 215 219 200 209 217 211 236 215 209 244 264 261 267 260 252 152 194 201 197 194 194 192 189 188 187 189 190 189 191 193 193 196 194 195 191 197 194 194 193
221 215 209 186 207 183 202 192 205 220 218 228 153 223 245 270 296 279 251 267 230 191 197 199 197 197 196 192 189 193 192 193 192 192 200 204 205 204 206 200 197 204 203 202
204 234 178 196 185 198 194 225 234 263 225 257 209 208 265 238 263 235 238 238 227 190 202 206 201 198 199 195 193 196 198 198 195 197 198 203 205 209 207 208 207 208 210 208
229 239 205 196 197 210 218 174 184 214 228 232 233 242 255 210 254 296 250 237 280 283 215 211 204 199 200 199 193 195 205 203 201 201 203 204 205 210 213 211 210 212 209 211
254 260 140 164 202 205 202 211 233 249 235 247 244 211 231 296 9 338 316 305 324 327 296 218 203 199 198 196 197 196 201 205 205 204 205 207 207 209 211 216 219 220 219 218
206 284 183 164 103 338 210 221 220 225 198 230 281 237 112 24 350 342 336 324 321 323 328 273 200 191 194 198 199 200 199 203 206 205 205 210 212 211 212 216 217 217 222 223
357 221 211 225 213 213 207 145 159 195 291 240 231 214 342 312 317 322 319 323 322 331 343 327 232 204 199 200 203 205 203 207 205 205 205 206 209 210 215 217 218 218 222 226
303 206 243 226 223 134 178 152 140 219 214 243 242 275 289 295 301 296 297 312 313 319 315 302 259 227 223 208 207 208 209 209 206 207 208 209 208 211 212 217 220 219 219 221
333 234 241 137 116 254 202 199 189 212 237 233 255 250 262 267 277 299 314 306 308 310 307 305 279 253 227 222 216 211 214 208 207 208 211 215 212 214 215 218 221 222 221 223
344 236 242 257 264 247 259 253 249 243 241 250 250 259 264 290 291 302 308 310 315 307 300 301 305 264 236 221 223 216 213 210 205 209 215 216 215 214 216 217 220 222 223 224
309 231 202 252 307 292 264 237 236 240 237 247 269 293 325 302 300 304 303 305 309 311 308 305 304 305 268 232 219 221 217 212 207 212 215 214 213 213 216 215 216 220 223 226
265 220 216 227 216 238 351 115 207 259 263 273 287 316 327 320 318 304 292 303 327 324 317 308 301 300 295 290 254 237 221 212 211 212 214 212 211 211 210 209 214 218 221 221
221 237 188 220 219 282 289 251 236 228 257 237 22 351 339 331 311 289 12 337 327 324 315 311 303 298 293 285 283 240 230 217 213 216 214 208 207 207 205 205 205 209 214 213
199 225 231 193 236 238 135 132 83 342 236 112 336 322 335 333 322 349 335 330 335 333 327 321 315 303 290 284 284 252 229 224 222 216 217 206 200 201 203 201 178 131 122 104
183 200 217 220 238 253 258 265 3 217 75 349 343 328 329 321 330 323 324 328 341 346 336 331 323 311 299 296 290 261 242 232 229 219 206 197 192 183 137 127 114 109 105 100
179 194 198 224 229 240 219 192 221 13 332 344 331 324 320 319 324 336 341 338 343 348 345 338 329 325 330 317 290 269 246 85 129 126 114 105 103 108 124 118 114 115 112 103
211 215 198 208 213 95 138 26 21 10 354 348 335 328 316 307 329 342 342 354 348 355 349 345 337 335 346 347 332 302 94 116 120 111 107 97 89 86 85 99 105 110 112 111
232 239 237 214 228 245 298 76 31 3 354 338 340 337 344 328 307 315 331 350 360 360 360 348 345 345 353 8 23 34 59 83 95 92 88 92 94 88 83 88 92 97 99 113
242 197 234 249 254 269 262 44 11 348 350 337 331 338 344 337 337 337 348 349 14 7 12 354 344 354 358 357 26 42 49 69 82 83 84 84 84 83 76 61 62 70 58 85
232 245 236 259 72 284 293 340 345 336 346 342 334 332 344 349 340 344 1 0 22 31 25 10 348 9 14 8 13 35 52 70 81 82 80 78 85 85 83 86 79 68 78 80